Location: Aldenham
(51.6667°N, 0.3500°W)
Time: 05:07:15
(UTC+00:00)

A-11 Canister half - Pass Details

Date: 18 February 2026
Orbit: 1512 x 1687 km, 47.2° (Epoch: 5 March)

Event Time Altitude Azimuth Distance (km) Brightness Sun altitude
Rises 00:56:24 0° 274° (W) 4,914 - -49.2°
Reaches altitude 10° 00:59:37 10° 271° (W) 3,910 - -49.0°
Maximum altitude 01:09:26 64° 193° (SSW) 1,760 - -48.5°
Drops below altitude 10° 01:18:52 10° 115° (ESE) 3,771 - -48.0°
Exits shadow 01:21:29 - 113° (ESE) 4,592 11.5 -47.8°
Sets 01:21:55 0° 113° (ESE) 4,732 11.6 -47.8°
